Weather Roundup
Issued by NWS Springfield, MO

Current Version | Previous Version | Text Only | Print | Product List | Glossary On
Versions: 1 2 3 4 5 6 7 8 9 10 11 12 13 14 15 16 17 18 19 20 21 22 23 24 25 26 27 28 29 30 31 32 33 34 35 36 37 38 39 40 41 42 43 44 45 46 47 48 49 50
000
NZUS99 KSGF 050407
HRRSGF

HOURLY WEATHER
NATIONAL WEATHER SERVICE SPRINGFIELD MO
1000 PM CST WED MAR 04 2015

......SGF CWA......

CITY           SKY/WX    TMP DP  RH WIND       PRES   REMARKS
SPRINGFIELD    CLOUDY    23   9  55 N9        30.34R WCI  13
JOPLIN         CLOUDY    24   7  48 N6        30.39R WCI  17
WEST PLAINS    CLOUDY    20  10  65 N6        30.31R WCI  12
ROLLA          CLOUDY    21   6  52 N6        30.32R WCI  13
OSAGE BEACH    PTCLDY    23   3  42 CALM      30.37R

......SURROUNDING SGF CWA......

CITY           SKY/WX    TMP DP  RH WIND       PRES   REMARKS
CHANUTE        CLOUDY    25  10  53 CALM      30.41R
PARSONS        CLOUDY    26  12  55 N3        30.41R
COFFEYVILLE    CLOUDY    25  12  58 N5        30.41R WCI  19
EMPORIA        PTCLDY    21   9  59 NW5       30.40R WCI  15
GROVE OK       CLOUDY    27  18  69 N5        30.40S WCI  21
ROGERS AR      LGT SNOW  19  16  86 NE10      30.34S FOG     WCI   8
SILOAM SPRINGS CLOUDY    21  12  68 NE10      30.35S WCI  10
HARRISON AR    FLURRIES  19  15  84 N10       30.32R WCI   7
NEAR YELLVILLE CLOUDY    21  12  68 CALM      30.34R

......KANSAS AND MISSOURI......

CITY           SKY/WX    TMP DP  RH WIND       PRES   REMARKS
KANSAS CTY INT MOCLDY    23   5  46 N14       30.40R WCI  11
DOWNTOWN KC    PTCLDY    27   5  39 N12       30.41R WCI  17
COLUMBIA       MOCLDY    22   7  52 CALM      30.36R
SEDALIA        CLOUDY    24   9  52 W3        30.38S
ST JOSEPH      CLEAR     18   3  52 N10       30.44R WCI   6
ST LOUIS       CLOUDY    23   4  44 N9        30.39R WCI  13
SPIRIT OF STL  CLOUDY    23   1  38 NE8       30.39S WCI  14
WICHITA        PTCLDY    25   9  50 N3        30.41R
TOPEKA         CLEAR     23   7  50 N7        30.42R WCI  15
OLATHE         MOCLDY    25   9  50 NW5       30.38R WCI  19

......TENNESSEE......

CITY           SKY/WX    TMP DP  RH WIND       PRES   REMARKS
MEMPHIS        FRZ RAIN  28  25  88 N16G30    30.18S FOG     WCI  16
NASHVILLE      FRZ DRZL  31  29  92 N16G24    30.13R WCI  20

......ARKANSAS.......

CITY           SKY/WX    TMP DP  RH WIND       PRES   REMARKS
FAYETTEVILLE   LGT SNOW  20  17  88 N7G21     30.33R FOG     WCI  11
FT SMITH       FLURRIES  26  19  74 N17       30.33F WCI  13
LITTLE ROCK    LGTSLEET  27  23  85 N21G26    30.28R FOG     WCI  13

......OKLAHOMA.......

CITY           SKY/WX    TMP DP  RH WIND       PRES   REMARKS
TULSA          FLURRIES  28  13  53 N8        30.40R WCI  20
PONCA CITY     CLOUDY    25  16  68 N5        30.40S WCI  19
MCALESTER      FLURRIES  25  21  85 N18G26    30.33R WCI  11
OKLAHOMA CITY  CLOUDY    24  18  77 NE13      30.39R WCI  12

......IOWA............

CITY           SKY/WX    TMP DP  RH WIND       PRES   REMARKS
DES MOINES     CLEAR     14   3  61 N14       30.42R WCI  -1
QUAD CITIES    MOCLDY    13   1  59 NW7       30.40R WCI   3

......ILLINOIS........

CITY           SKY/WX    TMP DP  RH WIND       PRES   REMARKS
QUINCY         PTCLDY    18   6  59 CALM      30.38R
CHICAGO        CLOUDY    13   0  56 NW15      30.32S WCI  -3




USA.gov is the U.S. government's official web portal to all federal, state and local government web resources and services.